Weather History for KPRN - June, 2013

Change the Weather History Date:

Monday, June 10, 2013

  Actual Average Record
Temperature  
Mean Temperature 76 °F -  
Max Temperature 82 °F 90 °F 100 °F (1963)
Min Temperature 71 °F 66 °F 58 °F (1988)
Cooling Degree Days 12    
Growing Degree Days 26 (Base 50)    
Moisture  
Dew Point 71 °F    
Average Humidity 87    
Maximum Humidity 94    
Minimum Humidity 71    
Precipitation  
Precipitation 1.28 in - - ()
Sea Level Pressure  
Sea Level Pressure 30.03 in    
Wind  
Wind Speed 7 mph (SSW)    
Max Wind Speed 20 mph    
Max Gust Speed 34 mph    
Visibility 8 miles    
Events Fog , Rain , Thunderstorm    
Averages and records for this station are not official NWS values.
T = Trace of Precipitation, MM = Missing Value Source: NWS Daily Summary

Daily Weather History Graph

Daily Weather History Graph

Search for Another Location

Airport or City:

Trip Planner

Search our weather history database for the weather conditions in past years. The results will help you decide how hot, cold, wet, or windy it might be!

Date:

Astronomy

Jun. 10, 2013 Rise Set
Actual Time 5:40 AM CDT 7:51 PM CDT
Civil Twilight 5:12 AM CDT 8:19 PM CDT
Nautical Twilight 4:37 AM CDT 8:54 PM CDT
Astronomical Twilight 4:00 AM CDT 9:31 PM CDT
Moon 7:23 AM CDT (6/10) 9:24 PM CDT (6/10)
Length of Visible Light 15h 07m
Length of Day
14h 11m
Waxing Crescent, 4% of the Moon is Illuminated
Jun 10
Waxing Crescent
Jun 16
First Quarter
Jun 23
Full
Jun 29
Last Quarter
Jul 8
New

Hourly Weather History & Observations

Time (CDT) Temp. Heat Index Dew Point Humidity Pressure Visibility Wind Dir Wind Speed Gust Speed Precip Events Conditions
12:56 AM 72.0 °F - 70.0 °F 93% 30.01 in 10.0 mi South 6.9 mph - N/A   Overcast
1:56 AM 73.0 °F - 70.0 °F 90% 30.00 in 10.0 mi SSW 5.8 mph - N/A   Overcast
2:56 AM 73.0 °F - 70.0 °F 90% 29.99 in 10.0 mi South 6.9 mph - N/A   Overcast
3:56 AM 73.0 °F - 71.1 °F 93% 29.99 in 10.0 mi South 5.8 mph - N/A   Overcast
4:56 AM 73.9 °F - 72.0 °F 93% 29.99 in 3.0 mi South 5.8 mph - 0.07 in Rain Light Rain
5:09 AM 73.4 °F - 71.6 °F 94% 30.02 in 2.5 mi SSW 9.2 mph - 0.11 in Rain Heavy Rain
5:16 AM 73.4 °F - 69.8 °F 88% 30.01 in 1.2 mi South 4.6 mph 16.1 mph 0.25 in Rain Heavy Rain
5:22 AM 73.4 °F - 69.8 °F 88% 30.01 in 3.0 mi SSW 4.6 mph - 0.29 in Rain Light Rain
5:56 AM 73.0 °F - 71.1 °F 93% 30.01 in 10.0 mi SSW 4.6 mph - 0.30 in   Mostly Cloudy
6:24 AM 73.4 °F - 71.6 °F 94% 30.02 in 10.0 mi SSW 5.8 mph - N/A   Overcast
6:52 AM 73.4 °F - 71.6 °F 94% 30.03 in 10.0 mi SSW 9.2 mph - N/A   Overcast
6:56 AM 73.9 °F - 72.0 °F 93% 30.02 in 10.0 mi SSW 8.1 mph - N/A   Overcast
7:56 AM 75.9 °F - 73.0 °F 91% 30.01 in 10.0 mi SSW 5.8 mph - N/A   Overcast
8:56 AM 79.0 °F - 73.0 °F 82% 30.01 in 10.0 mi Variable 6.9 mph - N/A   Mostly Cloudy
9:11 AM 78.8 °F - 73.4 °F 83% 30.03 in 10.0 mi SSW 6.9 mph - N/A   Scattered Clouds
9:56 AM 80.1 °F 83.8 °F 72.0 °F 76% 30.02 in 10.0 mi SSW 9.2 mph - N/A   Scattered Clouds
10:01 AM 80.6 °F 84.6 °F 71.6 °F 74% 30.04 in 10.0 mi SSW 9.2 mph - N/A Thunderstorm Thunderstorm
10:20 AM 78.8 °F - 71.6 °F 78% 30.05 in 10.0 mi Variable 6.9 mph - N/A   Mostly Cloudy
10:51 AM 78.8 °F - 71.6 °F 78% 30.05 in 10.0 mi SW 8.1 mph - N/A Thunderstorm Thunderstorm
10:56 AM 78.1 °F - 72.0 °F 81% 30.06 in 10.0 mi WSW 10.4 mph 19.6 mph 0.00 in Rain , Thunderstorm Light Thunderstorms and Rain
11:00 AM 75.2 °F - 69.8 °F 83% 30.11 in 1.8 mi West 19.6 mph 34.5 mph 0.09 in Rain , Thunderstorm Heavy Thunderstorms and Rain
11:08 AM 71.6 °F - 69.8 °F 94% 30.10 in 0.2 mi WNW 12.7 mph 27.6 mph 0.67 in Fog , Rain , Thunderstorm Heavy Thunderstorms and Rain
11:21 AM 71.6 °F - 69.8 °F 94% 30.10 in 1.8 mi WSW 5.8 mph - 0.82 in Rain , Thunderstorm Heavy Thunderstorms and Rain
11:28 AM 71.6 °F - 69.8 °F 94% 30.09 in 2.5 mi Calm Calm - 0.84 in Rain , Thunderstorm Thunderstorms and Rain
11:37 AM 71.6 °F - 69.8 °F 94% 30.09 in 2.5 mi WSW 5.8 mph - 0.86 in Rain , Thunderstorm Thunderstorms and Rain
11:56 AM 72.0 °F - 70.0 °F 93% 30.08 in 5.0 mi South 3.5 mph - 0.90 in Rain Light Rain
12:56 PM 73.0 °F - 70.0 °F 90% 30.05 in 10.0 mi SSW 6.9 mph - 0.01 in   Overcast
1:07 PM 73.4 °F - 71.6 °F 94% 30.06 in 10.0 mi SSW 8.1 mph - N/A   Mostly Cloudy
1:31 PM 75.2 °F - 71.6 °F 89% 30.05 in 10.0 mi SSW 10.4 mph - N/A   Mostly Cloudy
1:39 PM 77.0 °F - 71.6 °F 83% 30.04 in 10.0 mi SSW 10.4 mph 17.3 mph N/A   Scattered Clouds
2:56 PM 81.0 °F 84.9 °F 71.1 °F 72% 30.01 in 10.0 mi WSW 8.1 mph - N/A   Clear
3:56 PM 81.0 °F 84.9 °F 71.1 °F 72% 30.00 in 10.0 mi South 5.8 mph - N/A   Partly Cloudy
4:56 PM 82.0 °F 86.7 °F 72.0 °F 71% 29.98 in 10.0 mi SW 6.9 mph - N/A   Clear
5:56 PM 80.1 °F 83.8 °F 72.0 °F 76% 29.98 in 10.0 mi SSW 6.9 mph - N/A   Partly Cloudy
6:56 PM 80.1 °F 84.2 °F 73.0 °F 79% 29.99 in 10.0 mi SSW 8.1 mph - N/A   Scattered Clouds
7:56 PM 78.1 °F - 73.0 °F 84% 29.99 in 10.0 mi SSW 3.5 mph - N/A   Partly Cloudy
8:56 PM 75.9 °F - 73.0 °F 91% 29.99 in 10.0 mi SSW 3.5 mph - N/A   Clear
9:56 PM 75.0 °F - 72.0 °F 90% 30.01 in 10.0 mi SSW 4.6 mph - N/A   Clear
10:56 PM 73.9 °F - 72.0 °F 93% 30.03 in 10.0 mi SSW 5.8 mph - N/A   Clear
11:56 PM 73.9 °F - 72.0 °F 93% 30.04 in 9.0 mi SSW 4.6 mph - N/A   Clear